Precipitable_Water
0.62 0.61 0.59 0.58 0.58 0.57 0.57 0.56 0.56 0.55 0.55 0.55 0.55 0.55 0.55 0.55 0.55 0.53 0.51 0.49 0.47 0.47 0.48 0.47 0.47 0.45 0.42 0.40 0.40 0.41 0.40 0.31 0.27 0.28 0.28 0.28 0.33 0.38 0.51 0.49 0.60 0.65 0.70 0.73 0.67 0.73 0.84 1.06 1.15 1.30 1.39 1.48 1.46 1.45 1.67 1.66 1.71 1.64 1.31 1.24 1.08 1.19 1.19 1.32 1.34 1.45 1.52 1.39 1.53 1.63 1.66 1.53 1.37 1.55 1.57 1.71 1.58 1.46 1.38 1.30 1.36 1.37 1.32 1.36 1.36 1.43 1.48 1.54
0.64 0.62 0.60 0.60 0.59 0.58 0.57 0.56 0.56 0.55 0.55 0.55 0.55 0.55 0.56 0.56 0.56 0.55 0.54 0.52 0.51 0.49 0.48 0.49 0.47 0.46 0.43 0.40 0.40 0.41 0.37 0.28 0.21 0.24 0.21 0.30 0.33 0.40 0.47 0.51 0.61 0.61 0.67 0.61 0.57 0.64 0.79 0.88 1.05 1.20 1.37 1.33 1.60 1.40 1.69 1.46 1.70 1.37 1.29 1.25 1.08 1.23 1.27 1.44 1.43 1.58 1.50 1.39 1.53 1.65 1.69 1.57 1.47 1.55 1.59 1.45 1.37 1.35 1.23 1.28 1.31 1.23 1.29 1.40 1.40 1.42 1.47 1.51
0.63 0.62 0.61 0.61 0.60 0.59 0.58 0.58 0.57 0.56 0.55 0.54 0.54 0.55 0.55 0.56 0.56 0.56 0.55 0.54 0.53 0.52 0.51 0.49 0.48 0.47 0.42 0.42 0.39 0.41 0.34 0.24 0.23 0.20 0.29 0.33 0.30 0.37 0.44 0.53 0.62 0.63 0.58 0.51 0.55 0.64 0.77 0.90 1.11 1.28 1.32 1.29 1.40 1.36 1.53 1.43 1.57 1.47 1.31 1.15 1.20 1.38 1.43 1.51 1.51 1.54 1.67 1.61 1.52 1.55 1.61 1.61 1.66 1.64 1.73 1.37 1.31 1.28 1.17 1.18 1.20 1.15 1.15 1.22 1.31 1.40 1.44 1.47
0.60 0.60 0.60 0.60 0.60 0.59 0.59 0.59 0.59 0.59 0.57 0.56 0.54 0.54 0.54 0.55 0.55 0.55 0.55 0.55 0.55 0.54 0.54 0.52 0.50 0.48 0.44 0.41 0.41 0.41 0.32 0.25 0.22 0.38 0.43 0.39 0.28 0.30 0.41 0.50 0.59 0.58 0.55 0.53 0.56 0.78 1.12 1.15 1.19 1.21 1.15 1.23 1.30 1.45 1.34 1.44 1.35 1.46 1.33 1.19 1.27 1.42 1.36 1.51 1.56 1.62 1.69 1.71 1.59 1.58 1.61 1.55 1.67 1.67 1.60 1.40 1.24 1.21 1.26 1.31 1.12 1.09 1.14 1.17 1.24 1.31 1.38 1.40
0.58 0.57 0.57 0.58 0.58 0.58 0.59 0.59 0.59 0.59 0.59 0.57 0.56 0.55 0.54 0.54 0.54 0.54 0.54 0.54 0.55 0.55 0.54 0.54 0.52 0.48 0.45 0.42 0.39 0.41 0.22 0.21 0.32 0.48 0.50 0.54 0.29 0.28 0.36 0.45 0.55 0.52 0.47 0.48 0.51 0.76 1.03 1.01 1.07 1.10 1.09 1.09 1.22 1.27 1.28 1.42 1.49 1.43 1.29 1.39 1.42 1.47 1.37 1.56 1.58 1.72 1.68 1.77 1.64 1.59 1.45 1.45 1.75 1.67 1.56 1.42 1.15 1.12 1.24 1.33 1.30 1.21 1.20 1.18 1.19 1.25 1.32 1.34
0.56 0.56 0.56 0.56 0.56 0.56 0.56 0.57 0.58 0.58 0.58 0.58 0.58 0.57 0.55 0.54 0.54 0.54 0.53 0.55 0.55 0.55 0.55 0.55 0.54 0.48 0.46 0.42 0.40 0.36 0.19 0.13 0.58 0.64 0.61 0.52 0.39 0.32 0.34 0.41 0.51 0.46 0.40 0.39 0.42 0.69 0.90 0.92 0.94 0.89 0.94 1.02 1.06 1.06 1.24 1.35 1.47 1.14 1.35 1.43 1.46 1.46 1.41 1.60 1.63 1.72 1.69 1.62 1.59 1.50 1.58 1.66 1.59 1.54 1.60 1.49 1.35 1.38 1.52 1.45 1.38 1.26 1.26 1.25 1.28 1.27 1.26 1.30
0.54 0.54 0.55 0.55 0.56 0.56 0.55 0.55 0.56 0.57 0.57 0.57 0.57 0.56 0.56 0.55 0.55 0.54 0.53 0.54 0.55 0.55 0.55 0.55 0.54 0.50 0.45 0.42 0.43 0.28 0.15 0.29 0.47 0.56 0.64 0.58 0.43 0.41 0.35 0.38 0.50 0.41 0.34 0.29 0.42 0.68 0.81 0.82 0.88 0.89 0.92 0.93 1.03 1.07 1.19 1.25 1.41 1.28 1.19 1.36 1.37 1.44 1.38 1.60 1.62 1.74 1.69 1.62 1.56 1.68 1.74 1.55 1.55 1.37 1.63 1.55 1.61 1.59 1.59 1.56 1.47 1.36 1.34 1.31 1.24 1.26 1.27 1.30
0.54 0.54 0.54 0.55 0.55 0.55 0.55 0.55 0.54 0.54 0.55 0.56 0.56 0.55 0.55 0.55 0.55 0.55 0.54 0.54 0.54 0.54 0.55 0.55 0.53 0.49 0.46 0.38 0.24 0.19 0.18 0.19 0.37 0.58 0.64 0.63 0.56 0.47 0.41 0.36 0.38 0.36 0.28 0.22 0.41 0.65 0.75 0.73 0.78 0.92 0.89 0.83 0.88 0.95 1.07 1.13 1.28 1.20 1.21 1.35 1.39 1.43 1.44 1.58 1.71 1.71 1.70 1.66 1.71 1.70 1.57 1.55 1.59 1.53 1.65 1.59 1.66 1.67 1.60 1.60 1.50 1.39 1.33 1.31 1.25 1.25 1.27 1.28
0.54 0.54 0.55 0.55 0.55 0.54 0.54 0.54 0.54 0.54 0.54 0.53 0.54 0.55 0.54 0.54 0.53 0.54 0.55 0.55 0.54 0.55 0.55 0.56 0.51 0.49 0.50 0.33 0.18 0.12 0.12 0.40 0.47 0.67 0.65 0.62 0.64 0.54 0.45 0.28 0.35 0.32 0.26 0.23 0.42 0.69 0.68 0.69 0.78 0.87 0.74 0.77 0.85 0.80 0.98 1.00 1.02 1.26 1.28 1.37 1.36 1.39 1.47 1.56 1.63 1.68 1.69 1.70 1.68 1.55 1.54 1.65 1.71 1.78 1.56 1.66 1.74 1.79 1.67 1.55 1.47 1.37 1.28 1.26 1.25 1.24 1.26 1.25
0.54 0.55 0.55 0.55 0.55 0.55 0.54 0.54 0.53 0.53 0.52 0.52 0.52 0.53 0.53 0.53 0.53 0.53 0.55 0.55 0.55 0.55 0.56 0.55 0.51 0.48 0.38 0.29 0.25 0.16 0.43 0.63 0.68 0.66 0.58 0.57 0.59 0.52 0.41 0.30 0.27 0.32 0.25 0.23 0.43 0.57 0.61 0.70 0.78 0.84 0.82 0.75 0.78 0.73 0.90 0.97 0.97 1.25 1.33 1.37 1.37 1.42 1.50 1.62 1.51 1.60 1.69 1.63 1.65 1.46 1.49 1.55 1.77 1.63 1.37 1.79 1.77 1.78 1.61 1.51 1.46 1.37 1.27 1.28 1.28 1.26 1.29 1.27
0.55 0.56 0.56 0.56 0.55 0.54 0.54 0.53 0.52 0.51 0.51 0.50 0.50 0.51 0.52 0.52 0.52 0.52 0.53 0.54 0.56 0.57 0.58 0.55 0.51 0.44 0.30 0.32 0.16 0.20 0.67 0.73 0.71 0.64 0.57 0.55 0.47 0.42 0.36 0.29 0.25 0.31 0.26 0.28 0.40 0.54 0.65 0.71 0.78 0.80 0.76 0.64 0.65 0.64 0.79 0.94 1.14 1.27 1.35 1.37 1.38 1.45 1.53 1.50 1.57 1.61 1.64 1.57 1.66 1.56 1.44 1.59 1.68 1.59 1.39 1.62 1.77 1.77 1.59 1.52 1.42 1.36 1.29 1.29 1.31 1.29 1.29 1.28
0.56 0.57 0.57 0.56 0.56 0.55 0.55 0.54 0.52 0.51 0.50 0.49 0.48 0.48 0.50 0.51 0.51 0.52 0.52 0.53 0.57 0.60 0.59 0.55 0.49 0.42 0.35 0.26 0.19 0.33 0.69 0.73 0.73 0.65 0.58 0.49 0.36 0.34 0.33 0.27 0.23 0.31 0.27 0.29 0.41 0.52 0.65 0.71 0.76 0.75 0.59 0.68 0.53 0.60 0.64 0.90 0.80 1.12 1.29 1.10 1.25 1.37 1.35 1.50 1.45 1.57 1.70 1.53 1.68 1.62 1.44 1.40 1.49 1.36 1.65 1.75 1.81 1.72 1.64 1.53 1.43 1.33 1.29 1.31 1.34 1.31 1.28 1.27
0.57 0.57 0.57 0.57 0.56 0.56 0.56 0.55 0.53 0.51 0.50 0.48 0.46 0.46 0.47 0.49 0.50 0.50 0.50 0.52 0.59 0.61 0.58 0.53 0.49 0.44 0.34 0.15 0.20 0.48 0.64 0.67 0.71 0.64 0.60 0.45 0.33 0.31 0.31 0.24 0.23 0.32 0.31 0.34 0.44 0.57 0.68 0.71 0.73 0.67 0.70 0.58 0.53 0.49 0.60 0.73 0.71 1.15 1.24 1.14 1.15 1.19 1.20 1.43 1.51 1.48 1.45 1.62 1.64 1.53 0.96 1.17 1.43 1.51 1.65 1.76 1.74 1.69 1.60 1.54 1.45 1.34 1.31 1.32 1.32 1.28 1.28 1.33
0.58 0.58 0.57 0.58 0.57 0.57 0.57 0.56 0.54 0.51 0.49 0.47 0.45 0.44 0.45 0.46 0.49 0.49 0.49 0.52 0.60 0.58 0.54 0.52 0.50 0.46 0.31 0.15 0.29 0.50 0.60 0.64 0.58 0.58 0.50 0.43 0.26 0.22 0.25 0.21 0.25 0.32 0.32 0.41 0.54 0.58 0.60 0.67 0.70 0.64 0.65 0.53 0.47 0.60 0.60 0.64 0.67 0.85 1.18 1.18 1.01 0.99 1.02 1.32 1.40 1.43 1.33 1.57 1.66 1.50 0.96 1.12 1.44 1.50 1.69 1.75 1.72 1.61 1.52 1.54 1.47 1.36 1.32 1.31 1.31 1.25 1.26 1.33
0.59 0.59 0.58 0.58 0.58 0.58 0.57 0.56 0.54 0.51 0.50 0.47 0.44 0.42 0.42 0.44 0.47 0.49 0.49 0.52 0.58 0.55 0.51 0.54 0.55 0.41 0.26 0.23 0.41 0.58 0.68 0.70 0.50 0.47 0.50 0.37 0.24 0.19 0.22 0.26 0.31 0.32 0.30 0.46 0.51 0.55 0.58 0.60 0.58 0.51 0.49 0.52 0.55 0.51 0.51 0.56 0.60 0.91 0.84 0.87 1.03 0.91 1.03 1.23 1.43 1.40 1.25 1.47 1.61 1.41 1.01 1.08 1.38 1.49 1.66 1.73 1.69 1.62 1.51 1.54 1.49 1.38 1.32 1.32 1.30 1.23 1.29 1.28
0.60 0.59 0.59 0.59 0.59 0.58 0.57 0.56 0.54 0.52 0.49 0.46 0.42 0.41 0.41 0.44 0.45 0.47 0.48 0.49 0.52 0.51 0.52 0.43 0.50 0.43 0.24 0.23 0.37 0.59 0.54 0.50 0.47 0.49 0.50 0.37 0.24 0.22 0.27 0.31 0.35 0.35 0.40 0.48 0.55 0.54 0.51 0.52 0.44 0.44 0.46 0.48 0.47 0.45 0.46 0.50 0.54 0.63 0.77 0.85 0.86 0.93 0.95 1.05 1.29 1.46 1.47 1.41 1.50 1.32 1.01 1.18 1.25 1.53 1.66 1.73 1.65 1.59 1.54 1.52 1.47 1.38 1.35 1.31 1.28 1.25 1.28 1.26
0.60 0.60 0.60 0.61 0.60 0.59 0.58 0.56 0.54 0.52 0.48 0.44 0.41 0.39 0.43 0.49 0.50 0.50 0.53 0.51 0.50 0.53 0.42 0.40 0.50 0.49 0.15 0.39 0.56 0.42 0.41 0.49 0.55 0.47 0.46 0.43 0.29 0.32 0.33 0.33 0.36 0.42 0.50 0.51 0.50 0.47 0.45 0.38 0.39 0.41 0.43 0.42 0.44 0.42 0.39 0.42 0.44 0.53 0.70 0.73 0.88 0.82 0.91 0.87 1.18 1.40 1.42 1.37 1.19 1.31 1.10 1.16 1.33 1.53 1.63 1.72 1.67 1.59 1.52 1.52 1.48 1.38 1.34 1.30 1.26 1.25 1.25 1.20
0.61 0.62 0.62 0.62 0.61 0.60 0.58 0.56 0.54 0.50 0.46 0.42 0.38 0.39 0.47 0.56 0.59 0.60 0.59 0.61 0.61 0.51 0.43 0.50 0.51 0.38 0.22 0.41 0.30 0.36 0.51 0.48 0.48 0.47 0.46 0.42 0.37 0.38 0.41 0.36 0.41 0.45 0.45 0.41 0.46 0.38 0.38 0.29 0.32 0.30 0.35 0.38 0.40 0.38 0.33 0.33 0.42 0.52 0.53 0.63 0.76 0.89 0.90 0.85 0.87 1.15 1.28 1.32 1.17 1.17 1.12 1.15 1.31 1.48 1.53 1.59 1.71 1.62 1.52 1.53 1.50 1.40 1.38 1.31 1.25 1.24 1.25 1.20
0.63 0.63 0.63 0.63 0.62 0.62 0.60 0.57 0.53 0.49 0.44 0.40 0.38 0.49 0.58 0.66 0.73 0.66 0.52 0.59 0.49 0.34 0.20 0.27 0.25 0.29 0.23 0.34 0.43 0.45 0.51 0.54 0.52 0.51 0.46 0.44 0.39 0.39 0.44 0.46 0.45 0.42 0.36 0.35 0.34 0.36 0.32 0.27 0.27 0.25 0.26 0.30 0.33 0.35 0.33 0.45 0.53 0.53 0.55 0.64 0.76 0.75 0.81 0.84 0.95 1.17 1.18 1.10 1.10 1.09 0.99 1.09 1.22 1.31 1.48 1.58 1.71 1.58 1.55 1.55 1.52 1.45 1.41 1.34 1.27 1.24 1.21 1.20
0.64 0.64 0.64 0.64 0.63 0.62 0.60 0.59 0.54 0.49 0.45 0.35 0.34 0.41 0.55 0.48 0.47 0.47 0.51 0.48 0.38 0.32 0.35 0.38 0.39 0.43 0.42 0.42 0.45 0.56 0.59 0.55 0.45 0.54 0.55 0.57 0.45 0.38 0.39 0.41 0.44 0.43 0.37 0.29 0.30 0.31 0.30 0.20 0.17 0.16 0.22 0.28 0.34 0.37 0.40 0.50 0.51 0.51 0.48 0.45 0.54 0.58 0.70 0.91 0.98 1.12 1.26 1.11 1.06 1.10 1.10 1.09 1.16 1.28 1.41 1.53 1.58 1.58 1.53 1.48 1.47 1.43 1.37 1.34 1.25 1.21 1.20 1.20
0.65 0.65 0.64 0.64 0.64 0.62 0.62 0.59 0.55 0.51 0.46 0.41 0.42 0.42 0.33 0.31 0.27 0.24 0.30 0.35 0.38 0.37 0.37 0.38 0.45 0.44 0.46 0.52 0.56 0.56 0.49 0.44 0.50 0.49 0.56 0.61 0.56 0.44 0.38 0.38 0.36 0.31 0.32 0.33 0.27 0.32 0.30 0.20 0.18 0.17 0.19 0.26 0.32 0.37 0.41 0.46 0.48 0.47 0.44 0.43 0.39 0.55 0.55 0.71 0.82 1.06 1.22 1.01 1.00 1.15 1.09 1.09 1.17 1.30 1.40 1.53 1.50 1.45 1.48 1.46 1.45 1.42 1.39 1.39 1.28 1.23 1.19 1.24
0.66 0.65 0.64 0.64 0.65 0.63 0.62 0.59 0.57 0.54 0.51 0.50 0.47 0.39 0.37 0.38 0.43 0.46 0.34 0.26 0.29 0.33 0.36 0.40 0.47 0.48 0.57 0.58 0.58 0.59 0.53 0.43 0.44 0.48 0.53 0.55 0.50 0.37 0.38 0.33 0.30 0.27 0.30 0.31 0.29 0.26 0.22 0.19 0.20 0.21 0.20 0.20 0.27 0.34 0.38 0.41 0.44 0.45 0.41 0.40 0.37 0.42 0.59 0.84 0.93 1.06 1.12 1.04 0.95 1.12 1.05 1.09 1.18 1.27 1.41 1.44 1.44 1.48 1.54 1.53 1.51 1.48 1.43 1.45 1.37 1.29 1.23 1.27
0.66 0.65 0.64 0.64 0.64 0.63 0.61 0.60 0.58 0.55 0.50 0.45 0.37 0.37 0.35 0.41 0.48 0.48 0.40 0.27 0.24 0.28 0.30 0.34 0.37 0.44 0.47 0.55 0.58 0.57 0.45 0.42 0.40 0.44 0.48 0.53 0.50 0.43 0.40 0.31 0.28 0.29 0.29 0.28 0.22 0.22 0.18 0.19 0.22 0.25 0.23 0.18 0.18 0.27 0.34 0.37 0.38 0.39 0.39 0.36 0.34 0.63 0.65 0.62 0.92 1.05 1.12 1.03 0.94 1.07 1.03 1.11 1.24 1.34 1.36 1.46 1.48 1.49 1.58 1.60 1.59 1.59 1.50 1.48 1.44 1.37 1.31 1.27
0.66 0.65 0.64 0.62 0.63 0.63 0.65 0.64 0.68 0.60 0.50 0.48 0.47 0.40 0.46 0.49 0.45 0.44 0.30 0.17 0.14 0.22 0.21 0.26 0.36 0.40 0.41 0.39 0.55 0.56 0.50 0.50 0.46 0.41 0.55 0.49 0.44 0.46 0.41 0.32 0.28 0.27 0.24 0.25 0.24 0.21 0.18 0.21 0.24 0.25 0.23 0.19 0.15 0.19 0.26 0.31 0.31 0.36 0.38 0.34 0.41 0.52 0.72 0.67 0.78 1.03 1.11 1.11 1.14 1.04 0.96 0.99 1.15 1.12 1.21 1.39 1.53 1.51 1.56 1.58 1.57 1.58 1.56 1.59 1.58 1.52 1.46 1.36
0.66 0.65 0.63 0.62 0.61 0.65 0.65 0.70 0.62 0.56 0.62 0.60 0.54 0.54 0.55 0.53 0.50 0.45 0.27 0.20 0.21 0.19 0.25 0.24 0.35 0.39 0.43 0.47 0.55 0.51 0.51 0.50 0.49 0.54 0.55 0.50 0.47 0.43 0.40 0.38 0.32 0.24 0.25 0.25 0.26 0.23 0.21 0.24 0.28 0.24 0.22 0.20 0.17 0.15 0.19 0.24 0.26 0.33 0.37 0.36 0.39 0.63 0.77 0.84 0.91 0.93 0.87 0.86 1.03 0.87 0.65 0.73 1.02 1.11 1.14 1.27 1.36 1.38 1.53 1.50 1.47 1.50 1.54 1.56 1.49 1.48 1.51 1.52
0.66 0.65 0.63 0.62 0.61 0.63 0.66 0.56 0.55 0.58 0.54 0.46 0.47 0.47 0.50 0.50 0.48 0.43 0.32 0.23 0.15 0.20 0.25 0.21 0.32 0.31 0.40 0.34 0.48 0.46 0.45 0.37 0.44 0.48 0.52 0.52 0.55 0.46 0.43 0.35 0.33 0.24 0.27 0.27 0.26 0.25 0.21 0.27 0.27 0.25 0.22 0.20 0.18 0.17 0.18 0.23 0.26 0.33 0.37 0.40 0.42 0.61 0.62 0.73 0.85 0.85 0.70 0.60 0.84 0.96 0.57 0.58 0.95 0.96 1.08 1.18 1.22 1.29 1.46 1.43 1.45 1.48 1.53 1.56 1.50 1.49 1.51 1.52
0.65 0.63 0.63 0.62 0.61 0.64 0.49 0.39 0.58 0.53 0.41 0.40 0.53 0.52 0.48 0.48 0.46 0.51 0.37 0.22 0.19 0.25 0.22 0.30 0.22 0.31 0.31 0.33 0.38 0.39 0.22 0.28 0.40 0.44 0.48 0.53 0.46 0.53 0.38 0.37 0.35 0.36 0.34 0.34 0.27 0.22 0.23 0.26 0.26 0.26 0.25 0.20 0.18 0.15 0.18 0.22 0.26 0.32 0.41 0.39 0.44 0.58 0.55 0.74 0.80 0.78 0.68 0.82 0.91 0.91 0.79 0.61 0.66 0.86 1.07 1.16 1.12 1.17 1.27 1.34 1.42 1.46 1.50 1.52 1.51 1.51 1.53 1.54
0.65 0.63 0.62 0.62 0.61 0.63 0.50 0.53 0.51 0.41 0.39 0.46 0.55 0.54 0.50 0.52 0.54 0.57 0.39 0.16 0.15 0.30 0.23 0.26 0.26 0.31 0.26 0.26 0.31 0.27 0.29 0.31 0.25 0.35 0.46 0.53 0.51 0.47 0.42 0.39 0.38 0.37 0.39 0.35 0.22 0.28 0.23 0.25 0.25 0.24 0.25 0.21 0.17 0.17 0.18 0.21 0.24 0.33 0.39 0.39 0.42 0.48 0.54 0.79 0.84 0.77 0.82 0.74 0.66 0.80 0.89 0.65 0.64 0.85 1.08 1.12 0.99 1.04 1.12 1.22 1.31 1.38 1.46 1.49 1.50 1.52 1.53 1.55
0.65 0.62 0.61 0.62 0.63 0.64 0.65 0.57 0.48 0.39 0.48 0.51 0.50 0.49 0.55 0.59 0.60 0.46 0.29 0.18 0.28 0.29 0.34 0.24 0.28 0.27 0.23 0.25 0.24 0.28 0.28 0.30 0.26 0.34 0.44 0.51 0.52 0.48 0.38 0.44 0.44 0.43 0.42 0.35 0.27 0.30 0.30 0.29 0.29 0.27 0.25 0.22 0.22 0.20 0.20 0.19 0.21 0.35 0.39 0.42 0.47 0.69 0.73 0.76 0.76 0.77 0.77 0.66 0.57 0.67 0.78 0.59 0.60 0.86 0.92 1.07 1.01 0.97 1.04 1.18 1.26 1.34 1.40 1.46 1.49 1.53 1.54 1.56
0.64 0.62 0.61 0.61 0.60 0.60 0.58 0.62 0.48 0.50 0.55 0.53 0.55 0.61 0.66 0.63 0.50 0.30 0.20 0.15 0.29 0.23 0.30 0.28 0.27 0.23 0.23 0.21 0.23 0.27 0.26 0.28 0.32 0.40 0.42 0.44 0.48 0.45 0.48 0.51 0.46 0.41 0.37 0.35 0.31 0.31 0.33 0.35 0.37 0.31 0.26 0.26 0.25 0.22 0.21 0.19 0.22 0.36 0.38 0.41 0.45 0.48 0.51 0.67 0.70 0.70 0.67 0.53 0.56 0.67 0.72 0.63 0.50 0.73 0.80 0.83 0.83 0.96 1.07 1.18 1.28 1.35 1.41 1.46 1.48 1.50 1.52 1.53
0.63 0.62 0.61 0.62 0.46 0.49 0.48 0.37 0.46 0.55 0.57 0.62 0.60 0.58 0.59 0.51 0.32 0.21 0.13 0.18 0.27 0.25 0.29 0.27 0.24 0.26 0.24 0.19 0.18 0.26 0.27 0.27 0.41 0.42 0.41 0.43 0.43 0.42 0.46 0.44 0.49 0.39 0.35 0.32 0.30 0.32 0.34 0.35 0.33 0.35 0.35 0.32 0.31 0.25 0.22 0.21 0.23 0.34 0.35 0.39 0.43 0.45 0.55 0.44 0.60 0.67 0.51 0.47 0.58 0.69 0.67 0.68 0.45 0.65 0.87 0.89 0.97 1.07 1.06 1.04 1.12 1.20 1.30 1.40 1.46 1.49 1.53 1.55
0.60 0.60 0.62 0.58 0.55 0.58 0.40 0.36 0.48 0.55 0.58 0.67 0.64 0.48 0.46 0.27 0.30 0.18 0.18 0.31 0.20 0.22 0.22 0.23 0.25 0.24 0.24 0.23 0.21 0.23 0.23 0.25 0.36 0.41 0.38 0.36 0.36 0.32 0.37 0.38 0.38 0.29 0.27 0.28 0.27 0.35 0.33 0.32 0.35 0.36 0.40 0.36 0.30 0.28 0.24 0.24 0.24 0.31 0.37 0.40 0.38 0.39 0.40 0.34 0.40 0.44 0.44 0.38 0.46 0.63 0.69 0.63 0.56 0.66 0.76 0.87 0.95 1.04 1.11 1.11 1.11 1.16 1.25 1.36 1.44 1.48 1.54 1.57
0.58 0.58 0.61 0.59 0.60 0.53 0.52 0.54 0.64 0.69 0.70 0.71 0.59 0.49 0.33 0.23 0.16 0.21 0.25 0.26 0.20 0.26 0.21 0.24 0.23 0.23 0.23 0.22 0.21 0.24 0.24 0.23 0.32 0.35 0.35 0.37 0.33 0.32 0.37 0.41 0.39 0.33 0.27 0.30 0.31 0.31 0.32 0.38 0.35 0.36 0.37 0.38 0.37 0.25 0.24 0.19 0.24 0.29 0.34 0.36 0.35 0.31 0.32 0.28 0.31 0.41 0.42 0.43 0.51 0.51 0.65 0.50 0.65 0.73 0.87 0.83 0.92 1.07 1.14 1.17 1.19 1.21 1.25 1.31 1.39 1.49 1.54 1.56
0.58 0.59 0.55 0.57 0.56 0.54 0.53 0.58 0.63 0.73 0.73 0.68 0.55 0.39 0.32 0.21 0.18 0.30 0.26 0.25 0.23 0.27 0.26 0.24 0.23 0.23 0.22 0.19 0.22 0.22 0.20 0.23 0.25 0.29 0.31 0.30 0.26 0.28 0.34 0.39 0.38 0.34 0.34 0.30 0.31 0.31 0.27 0.28 0.32 0.35 0.29 0.38 0.37 0.34 0.28 0.27 0.29 0.28 0.37 0.37 0.37 0.34 0.30 0.28 0.31 0.30 0.32 0.36 0.47 0.59 0.50 0.48 0.44 0.57 0.89 0.96 1.05 1.13 1.21 1.23 1.24 1.28 1.32 1.37 1.43 1.49 1.54 1.56
0.62 0.60 0.60 0.56 0.57 0.56 0.60 0.66 0.72 0.78 0.73 0.62 0.46 0.33 0.24 0.21 0.25 0.23 0.24 0.24 0.25 0.24 0.23 0.26 0.23 0.20 0.20 0.20 0.22 0.22 0.23 0.21 0.26 0.26 0.23 0.20 0.20 0.23 0.29 0.31 0.34 0.36 0.34 0.27 0.33 0.32 0.31 0.29 0.37 0.39 0.42 0.36 0.34 0.36 0.35 0.33 0.34 0.33 0.35 0.39 0.36 0.34 0.40 0.32 0.36 0.34 0.34 0.36 0.40 0.51 0.48 0.64 0.57 0.85 0.98 1.01 1.06 1.13 1.20 1.21 1.24 1.24 1.31 1.38 1.39 1.39 1.42 1.50
0.56 0.53 0.57 0.49 0.50 0.50 0.60 0.69 0.74 0.75 0.66 0.52 0.38 0.29 0.25 0.26 0.23 0.26 0.24 0.27 0.26 0.24 0.25 0.24 0.23 0.19 0.19 0.19 0.19 0.20 0.21 0.21 0.22 0.24 0.23 0.21 0.26 0.26 0.29 0.32 0.32 0.33 0.31 0.27 0.33 0.29 0.32 0.28 0.39 0.40 0.43 0.39 0.36 0.36 0.35 0.42 0.29 0.35 0.33 0.28 0.34 0.43 0.40 0.37 0.37 0.39 0.38 0.38 0.41 0.64 0.58 0.66 0.82 0.87 0.95 1.01 1.00 1.02 1.09 1.13 1.16 1.20 1.26 1.31 1.32 1.35 1.38 1.44
0.43 0.51 0.47 0.51 0.53 0.59 0.66 0.72 0.74 0.68 0.58 0.44 0.34 0.26 0.31 0.31 0.30 0.28 0.28 0.28 0.28 0.29 0.26 0.21 0.20 0.20 0.18 0.19 0.21 0.23 0.21 0.22 0.21 0.21 0.23 0.25 0.26 0.30 0.30 0.32 0.36 0.36 0.36 0.33 0.33 0.37 0.30 0.30 0.37 0.37 0.36 0.43 0.43 0.39 0.39 0.41 0.44 0.38 0.27 0.30 0.38 0.43 0.43 0.36 0.29 0.30 0.29 0.31 0.49 0.61 0.50 0.54 0.55 0.48 0.90 0.93 0.93 1.01 1.04 1.08 1.13 1.17 1.24 1.24 1.28 1.31 1.34 1.39
0.48 0.52 0.54 0.53 0.54 0.61 0.65 0.72 0.71 0.64 0.53 0.40 0.28 0.28 0.33 0.29 0.31 0.26 0.29 0.31 0.30 0.31 0.27 0.25 0.25 0.25 0.21 0.22 0.21 0.22 0.21 0.20 0.22 0.24 0.27 0.28 0.27 0.37 0.32 0.31 0.34 0.34 0.36 0.38 0.35 0.34 0.35 0.29 0.34 0.38 0.39 0.42 0.44 0.43 0.40 0.43 0.44 0.39 0.34 0.39 0.31 0.29 0.28 0.36 0.32 0.24 0.23 0.27 0.45 0.58 0.62 0.62 0.61 0.60 0.78 0.83 0.87 1.00 1.05 1.11 1.10 1.11 1.17 1.22 1.28 1.32 1.36 1.42
0.56 0.53 0.43 0.47 0.58 0.57 0.57 0.66 0.63 0.56 0.45 0.34 0.28 0.26 0.28 0.30 0.31 0.25 0.30 0.31 0.31 0.30 0.26 0.29 0.26 0.26 0.26 0.24 0.24 0.26 0.27 0.24 0.26 0.27 0.26 0.28 0.28 0.34 0.34 0.34 0.31 0.35 0.37 0.39 0.36 0.37 0.36 0.30 0.32 0.39 0.38 0.41 0.41 0.39 0.33 0.36 0.42 0.43 0.42 0.37 0.37 0.35 0.32 0.31 0.31 0.34 0.29 0.29 0.33 0.47 0.56 0.51 0.68 0.71 0.79 0.80 0.87 1.06 1.16 1.13 1.11 1.15 1.22 1.27 1.29 1.35 1.39 1.42
0.49 0.51 0.47 0.53 0.55 0.52 0.58 0.61 0.54 0.46 0.38 0.29 0.29 0.28 0.30 0.28 0.29 0.27 0.31 0.31 0.29 0.27 0.26 0.28 0.29 0.26 0.26 0.27 0.26 0.27 0.29 0.27 0.29 0.30 0.28 0.32 0.32 0.36 0.34 0.34 0.31 0.33 0.37 0.40 0.39 0.41 0.34 0.38 0.30 0.36 0.41 0.40 0.34 0.36 0.35 0.36 0.35 0.36 0.35 0.35 0.34 0.34 0.39 0.34 0.35 0.33 0.30 0.31 0.34 0.36 0.38 0.52 0.70 0.88 0.85 0.85 0.90 0.98 1.19 1.23 1.24 1.27 1.30 1.36 1.40 1.42 1.45 1.47
0.58 0.49 0.38 0.49 0.49 0.53 0.58 0.52 0.43 0.36 0.33 0.34 0.32 0.28 0.30 0.30 0.31 0.29 0.30 0.31 0.30 0.32 0.29 0.29 0.31 0.28 0.28 0.27 0.27 0.30 0.27 0.30 0.30 0.28 0.29 0.30 0.33 0.29 0.35 0.34 0.33 0.33 0.36 0.37 0.38 0.40 0.36 0.36 0.32 0.34 0.34 0.33 0.34 0.39 0.40 0.40 0.40 0.37 0.35 0.35 0.34 0.32 0.30 0.26 0.27 0.37 0.35 0.32 0.37 0.36 0.34 0.55 0.80 1.01 1.00 1.00 1.07 1.11 1.26 1.43 1.36 1.30 1.34 1.40 1.46 1.49 1.51 1.51
0.50 0.36 0.33 0.52 0.58 0.55 0.47 0.38 0.38 0.41 0.35 0.27 0.25 0.28 0.29 0.35 0.32 0.30 0.29 0.32 0.31 0.32 0.38 0.35 0.34 0.33 0.31 0.30 0.32 0.31 0.30 0.29 0.30 0.30 0.30 0.31 0.34 0.34 0.37 0.38 0.34 0.36 0.34 0.32 0.35 0.44 0.42 0.40 0.37 0.33 0.33 0.33 0.36 0.37 0.41 0.43 0.44 0.42 0.39 0.34 0.35 0.34 0.33 0.28 0.25 0.30 0.39 0.41 0.47 0.46 0.38 0.52 0.96 1.07 1.09 1.08 1.19 1.26 1.28 1.37 1.38 1.37 1.37 1.42 1.46 1.51 1.53 1.55
0.40 0.30 0.40 0.48 0.52 0.52 0.41 0.36 0.38 0.37 0.34 0.30 0.33 0.33 0.32 0.32 0.31 0.31 0.32 0.33 0.31 0.32 0.33 0.34 0.35 0.34 0.34 0.34 0.33 0.33 0.33 0.30 0.30 0.29 0.32 0.33 0.34 0.36 0.39 0.38 0.37 0.34 0.35 0.34 0.39 0.43 0.48 0.38 0.35 0.36 0.37 0.37 0.37 0.38 0.39 0.41 0.42 0.41 0.39 0.36 0.33 0.31 0.32 0.31 0.30 0.36 0.36 0.47 0.39 0.46 0.41 0.57 0.93 1.12 1.16 1.14 1.18 1.35 1.37 1.44 1.41 1.39 1.41 1.42 1.44 1.45 1.46 1.49
0.47 0.44 0.41 0.46 0.50 0.42 0.32 0.25 0.28 0.32 0.32 0.34 0.32 0.32 0.32 0.31 0.28 0.30 0.30 0.33 0.33 0.35 0.33 0.34 0.39 0.39 0.35 0.36 0.35 0.33 0.35 0.30 0.33 0.34 0.32 0.33 0.31 0.36 0.36 0.37 0.37 0.33 0.33 0.33 0.34 0.42 0.37 0.41 0.39 0.33 0.31 0.32 0.31 0.34 0.35 0.38 0.41 0.38 0.36 0.36 0.35 0.34 0.34 0.35 0.38 0.44 0.38 0.44 0.47 0.42 0.35 0.51 0.88 1.11 1.15 1.16 1.20 1.22 1.25 1.41 1.50 1.40 1.38 1.37 1.36 1.39 1.43 1.50
0.52 0.55 0.50 0.47 0.48 0.42 0.30 0.29 0.26 0.27 0.28 0.29 0.27 0.26 0.28 0.30 0.29 0.31 0.31 0.31 0.34 0.34 0.36 0.36 0.38 0.40 0.39 0.39 0.37 0.37 0.38 0.34 0.30 0.33 0.33 0.31 0.30 0.35 0.35 0.36 0.35 0.34 0.38 0.40 0.40 0.49 0.41 0.42 0.39 0.31 0.27 0.25 0.24 0.25 0.26 0.30 0.35 0.38 0.37 0.36 0.37 0.35 0.33 0.32 0.30 0.37 0.33 0.44 0.49 0.44 0.48 0.70 0.89 1.04 1.05 1.08 1.14 1.18 1.30 1.34 1.42 1.47 1.41 1.35 1.34 1.34 1.38 1.43
0.45 0.34 0.41 0.44 0.45 0.39 0.33 0.31 0.26 0.24 0.24 0.26 0.28 0.24 0.29 0.26 0.30 0.32 0.33 0.31 0.34 0.35 0.37 0.39 0.41 0.41 0.40 0.41 0.37 0.36 0.37 0.40 0.36 0.33 0.32 0.30 0.29 0.30 0.33 0.34 0.33 0.34 0.39 0.41 0.40 0.44 0.40 0.46 0.44 0.40 0.35 0.31 0.33 0.34 0.37 0.39 0.36 0.33 0.33 0.35 0.35 0.36 0.36 0.37 0.39 0.36 0.33 0.45 0.45 0.50 0.53 0.66 0.74 0.87 0.95 0.99 1.03 1.04 1.16 1.31 1.35 1.35 1.37 1.38 1.35 1.31 1.32 1.34
0.54 0.38 0.33 0.31 0.37 0.30 0.26 0.28 0.26 0.24 0.25 0.28 0.23 0.24 0.24 0.26 0.28 0.31 0.35 0.30 0.33 0.33 0.36 0.37 0.36 0.36 0.36 0.39 0.38 0.38 0.40 0.39 0.40 0.37 0.36 0.33 0.30 0.29 0.32 0.32 0.34 0.37 0.37 0.37 0.39 0.41 0.40 0.39 0.41 0.40 0.41 0.40 0.40 0.37 0.35 0.35 0.33 0.34 0.33 0.33 0.35 0.35 0.40 0.42 0.36 0.33 0.50 0.46 0.42 0.58 0.61 0.55 0.71 0.84 0.94 0.96 1.00 1.04 1.10 1.20 1.27 1.28 1.29 1.29 1.28 1.26 1.24 1.25
0.34 0.39 0.45 0.47 0.36 0.25 0.23 0.25 0.26 0.22 0.24 0.27 0.25 0.26 0.25 0.26 0.27 0.26 0.30 0.34 0.35 0.35 0.34 0.36 0.36 0.37 0.36 0.38 0.39 0.36 0.39 0.38 0.39 0.35 0.39 0.38 0.36 0.32 0.30 0.35 0.36 0.37 0.35 0.34 0.38 0.37 0.36 0.35 0.41 0.39 0.37 0.40 0.39 0.36 0.34 0.33 0.32 0.33 0.33 0.34 0.35 0.35 0.36 0.40 0.42 0.50 0.52 0.43 0.43 0.59 0.67 0.59 0.72 0.84 0.93 0.97 0.98 0.99 1.03 1.10 1.23 1.26 1.27 1.26 1.24 1.20 1.16 1.16
0.46 0.43 0.46 0.55 0.33 0.32 0.25 0.24 0.27 0.25 0.25 0.27 0.25 0.26 0.23 0.23 0.24 0.28 0.29 0.27 0.31 0.32 0.35 0.30 0.33 0.35 0.37 0.40 0.38 0.36 0.38 0.33 0.34 0.41 0.39 0.36 0.36 0.35 0.31 0.33 0.37 0.40 0.35 0.33 0.35 0.38 0.37 0.36 0.42 0.40 0.36 0.37 0.38 0.35 0.34 0.31 0.30 0.31 0.33 0.35 0.36 0.36 0.38 0.39 0.40 0.43 0.44 0.42 0.52 0.63 0.66 0.69 0.79 0.84 0.91 0.98 1.05 1.04 1.05 1.15 1.18 1.16 1.16 1.18 1.16 1.14 1.13 1.13
0.34 0.36 0.35 0.47 0.40 0.30 0.29 0.31 0.35 0.33 0.30 0.26 0.23 0.23 0.24 0.21 0.20 0.24 0.27 0.26 0.25 0.30 0.38 0.33 0.34 0.38 0.38 0.41 0.40 0.37 0.40 0.42 0.41 0.37 0.39 0.36 0.36 0.40 0.37 0.37 0.37 0.38 0.36 0.31 0.33 0.34 0.33 0.32 0.40 0.41 0.36 0.37 0.39 0.37 0.34 0.32 0.31 0.29 0.31 0.33 0.34 0.36 0.40 0.50 0.52 0.50 0.51 0.54 0.60 0.65 0.65 0.67 0.86 0.93 0.94 1.03 1.05 1.03 1.01 1.01 1.09 1.12 1.12 1.12 1.10 1.09 1.10 1.10
0.51 0.58 0.61 0.42 0.26 0.30 0.37 0.34 0.34 0.32 0.31 0.30 0.26 0.25 0.24 0.24 0.23 0.26 0.26 0.30 0.29 0.28 0.33 0.34 0.36 0.37 0.39 0.36 0.35 0.36 0.40 0.43 0.45 0.42 0.41 0.38 0.33 0.38 0.35 0.35 0.38 0.38 0.36 0.33 0.32 0.32 0.33 0.32 0.37 0.38 0.34 0.34 0.37 0.34 0.33 0.33 0.32 0.30 0.30 0.31 0.33 0.34 0.33 0.41 0.48 0.54 0.50 0.53 0.59 0.62 0.61 0.65 0.86 1.00 1.00 1.01 0.98 0.95 0.92 0.95 0.98 1.03 1.01 0.99 1.03 1.10 1.11 1.12
0.55 0.63 0.72 0.56 0.35 0.40 0.37 0.36 0.38 0.35 0.27 0.29 0.28 0.26 0.25 0.20 0.26 0.27 0.21 0.27 0.31 0.33 0.35 0.37 0.37 0.34 0.31 0.31 0.32 0.35 0.39 0.39 0.40 0.42 0.43 0.43 0.42 0.40 0.38 0.39 0.38 0.36 0.37 0.33 0.33 0.31 0.31 0.31 0.31 0.33 0.33 0.31 0.36 0.34 0.31 0.31 0.31 0.28 0.29 0.31 0.33 0.34 0.35 0.37 0.43 0.60 0.63 0.64 0.56 0.53 0.60 0.80 0.87 0.94 0.89 0.94 0.94 0.92 0.94 0.97 0.95 0.94 0.95 0.95 0.97 1.04 1.11 1.12
Wind_Speed
14 13 13 12 12 13 13 13 13 13 13 13 13 12 12 12 12 12 12 12 13 13 13 13 13 13 13 13 13 13 13 14 15 15 16 16 16 16 16 16 16 17 15 13 13 12 12 12 11 9 8 6 5 5 5 3 2 3 3 4 4 5 5 6 8 11 13 14 15 15 14 13 13 12 11 10 10 13 13 12 12 12 14 16 18 20 21 21
14 14 14 13 13 13 13 13 13 13 14 14 14 14 13 13 13 13 13 13 13 13 13 14 13 13 13 13 13 13 13 14 15 16 17 17 17 18 18 17 17 18 17 15 15 14 13 12 12 10 8 7 6 6 5 4 3 3 3 4 4 5 7 8 10 11 13 14 14 14 14 13 13 13 12 11 12 13 13 12 13 15 16 18 19 21 20 20
15 14 14 14 13 13 13 13 14 14 14 14 15 15 14 14 14 14 14 14 14 14 13 14 14 13 13 13 14 14 13 14 14 15 16 16 18 18 19 18 18 19 18 16 16 15 14 13 12 10 9 7 6 7 6 4 4 2 3 4 4 5 7 7 9 10 11 13 14 13 14 13 12 12 12 11 12 13 12 12 14 16 18 19 19 20 20 19
15 15 15 15 14 14 14 14 14 14 15 15 15 15 15 15 14 14 14 14 14 14 14 14 14 14 13 13 13 13 13 13 14 14 13 14 17 18 19 18 18 19 19 17 16 16 14 12 12 10 10 8 7 7 6 5 4 3 3 3 3 4 5 8 9 10 11 13 13 13 14 14 12 11 11 12 12 10 11 13 15 17 19 19 19 19 18 18
16 16 15 15 15 15 14 14 14 14 15 15 15 16 16 16 15 15 15 15 15 15 15 14 14 14 14 14 13 13 13 13 14 14 12 13 16 17 18 18 18 18 19 18 17 17 15 14 13 11 11 9 8 7 6 7 5 3 3 3 4 4 5 8 9 10 12 12 13 13 13 13 12 11 11 11 10 9 11 14 16 17 18 19 18 18 18 18
17 17 16 16 16 16 15 15 15 14 15 15 15 16 16 16 16 16 16 16 15 15 15 15 15 14 14 14 14 13 13 13 14 14 13 13 15 16 17 17 17 17 18 19 18 17 16 15 14 12 11 10 10 8 7 8 6 3 3 4 5 4 5 7 9 11 12 12 11 12 12 12 11 11 11 10 9 9 13 16 17 17 18 18 18 17 17 18
18 17 17 17 17 16 16 16 15 15 15 15 16 16 16 16 16 16 16 16 16 16 16 15 15 15 14 14 14 14 14 15 15 15 14 14 15 16 17 17 17 17 18 19 18 18 17 16 15 13 11 10 10 9 8 8 7 4 4 5 6 5 5 7 9 11 12 11 11 11 11 12 12 11 10 10 9 10 15 17 16 17 18 18 17 17 17 17
18 18 18 18 17 17 17 16 16 15 15 15 15 16 16 16 16 17 17 16 17 17 16 16 15 15 14 14 14 14 15 16 15 15 14 15 16 16 16 17 17 17 18 19 19 18 17 17 16 14 11 10 10 9 9 8 7 6 6 6 7 6 6 8 9 11 12 11 11 11 11 11 12 11 10 10 9 10 15 17 16 17 17 16 16 17 16 16
19 18 18 18 18 17 17 17 16 16 15 15 15 16 16 16 16 17 17 17 17 17 17 16 16 16 15 15 14 14 15 16 15 15 14 14 15 17 17 17 18 18 18 19 20 18 17 17 16 14 12 11 11 10 11 9 7 8 8 7 6 5 7 8 8 9 11 11 12 12 10 10 11 11 9 9 10 11 14 17 16 17 16 16 17 17 16 15
20 19 19 18 18 18 17 17 17 17 16 15 15 15 15 16 16 17 17 17 17 17 17 17 17 16 15 16 15 14 15 15 15 16 15 15 15 17 18 17 19 20 18 18 20 19 18 18 16 13 12 12 11 10 12 10 7 9 9 6 4 5 7 7 6 8 10 11 11 11 10 9 9 10 9 9 11 12 15 17 16 16 15 16 16 16 15 14
20 20 19 18 18 18 18 17 17 17 17 16 15 15 15 16 16 16 17 17 17 17 17 17 17 16 16 16 16 15 15 15 15 16 16 16 17 18 18 18 20 20 19 18 20 20 19 18 15 12 12 12 11 11 12 10 7 10 11 7 5 6 7 6 5 6 7 9 10 10 9 9 9 9 10 11 11 13 16 17 16 16 15 15 16 15 15 14
21 20 19 19 18 18 18 17 17 17 17 16 16 15 15 16 16 16 16 17 17 17 17 17 17 17 16 16 18 17 16 15 15 16 16 17 18 18 18 19 20 21 20 19 20 21 20 18 16 13 13 11 10 10 11 9 8 10 11 8 6 5 5 6 5 5 4 6 11 10 8 8 8 9 11 12 13 14 16 15 15 16 14 15 16 14 14 14
21 20 20 19 19 19 18 18 18 17 17 17 16 15 15 16 16 16 16 16 17 17 17 17 17 17 16 17 19 18 17 16 16 17 17 16 17 19 18 19 20 21 20 20 20 20 20 19 17 15 14 12 11 11 11 11 9 10 11 9 7 5 6 7 6 5 4 6 9 8 8 8 9 10 12 13 14 15 15 15 15 15 14 15 15 14 13 13
21 21 20 20 19 19 19 18 18 18 17 17 16 16 15 16 16 16 15 15 15 16 16 17 17 16 16 17 18 18 17 17 17 18 17 16 17 18 19 19 20 21 20 21 20 19 20 19 17 16 15 13 12 11 11 11 10 10 10 8 8 7 8 8 7 6 5 5 8 6 7 9 9 11 12 13 15 16 16 15 14 14 15 15 15 14 13 13
21 21 21 21 20 20 19 19 19 18 18 17 16 16 15 15 15 15 15 14 14 15 16 17 17 16 16 18 18 17 16 17 18 19 18 16 17 18 19 20 20 21 21 21 20 19 20 19 18 17 15 13 12 11 11 11 10 11 11 9 9 8 8 8 8 8 6 6 8 6 6 8 9 11 12 14 16 16 17 16 14 14 16 15 15 14 12 13
21 21 21 21 20 20 19 19 18 18 18 17 16 16 15 15 15 14 14 14 14 14 15 16 17 17 16 17 17 16 16 17 18 19 19 17 18 19 19 19 20 21 21 21 20 19 19 19 18 17 15 14 13 11 11 11 11 12 12 12 11 9 9 8 9 10 7 7 7 6 6 7 8 11 12 14 16 16 17 17 15 14 16 16 15 14 13 13
21 21 21 20 20 20 19 18 18 18 17 16 16 15 15 14 14 14 14 14 13 14 15 15 16 17 17 17 16 17 17 18 17 18 20 18 18 19 19 19 19 20 21 21 20 20 19 18 18 17 15 15 15 13 11 12 12 12 11 12 12 11 11 9 9 10 9 8 7 6 6 7 8 11 12 14 16 17 17 16 15 14 16 16 15 14 13 13
21 21 20 20 20 19 19 18 17 17 16 15 15 15 14 14 13 13 14 14 13 13 14 15 16 16 16 17 16 17 18 18 18 18 20 20 20 20 19 19 20 20 20 20 20 19 19 17 17 17 16 17 16 14 14 14 13 12 11 11 11 12 12 11 9 10 11 9 8 7 7 8 8 10 12 14 16 17 17 16 14 14 16 16 15 14 14 13
21 20 20 20 19 19 18 17 16 15 15 14 13 13 13 12 12 13 13 14 13 13 13 15 16 15 16 17 17 17 18 18 18 19 21 21 21 20 20 19 20 21 20 19 18 19 18 16 17 18 18 18 18 17 16 15 12 11 11 11 12 12 12 12 9 9 12 9 8 9 8 9 9 9 11 13 15 17 17 16 14 13 16 17 15 15 15 13
20 20 20 19 19 18 17 16 15 14 13 12 11 10 10 10 11 12 13 14 15 14 15 16 17 17 16 16 16 16 17 18 18 18 20 21 20 20 20 20 20 20 20 19 18 19 18 17 18 19 20 20 19 19 17 15 13 12 11 10 11 12 12 13 11 11 12 9 8 9 8 10 10 9 11 13 15 17 16 16 15 13 15 17 16 16 16 14
20 20 19 19 18 17 16 16 14 13 12 10 9 9 9 9 10 11 13 14 15 16 16 16 17 18 18 17 17 16 17 18 18 18 19 20 20 20 20 19 19 19 19 19 18 18 18 18 19 19 20 21 20 20 18 16 15 14 13 11 11 12 12 13 12 12 12 9 8 9 9 10 10 9 11 13 14 16 17 17 16 14 16 17 15 16 16 14
19 19 19 18 17 16 16 14 13 12 11 9 8 8 9 9 10 11 12 13 14 15 16 16 17 17 17 18 19 19 18 17 18 19 19 19 19 20 20 19 19 19 19 19 18 17 18 19 19 19 19 20 21 21 19 17 16 15 13 12 12 11 10 11 12 13 13 9 9 11 10 9 10 10 12 13 14 16 17 16 16 15 16 17 15 16 16 15
18 18 18 17 16 15 14 14 12 11 10 9 8 8 9 9 9 10 11 11 13 14 15 16 16 16 15 16 18 19 19 17 17 19 20 19 19 20 20 19 19 19 19 19 19 18 18 19 20 20 19 19 21 22 21 19 17 15 14 13 12 11 10 11 13 15 13 9 10 11 9 9 10 11 12 14 14 14 15 15 16 16 16 17 16 15 15 15
17 18 17 17 15 14 14 13 11 10 9 9 8 8 9 8 9 9 9 10 11 13 15 16 16 16 15 14 16 17 16 17 18 19 20 20 20 20 20 20 19 19 19 20 20 19 19 19 19 20 19 19 20 22 22 20 17 16 16 15 13 12 12 11 13 15 12 9 11 12 9 9 11 12 13 13 13 13 15 16 17 17 17 18 17 16 15 15
16 16 16 16 15 14 14 12 9 10 10 8 7 7 8 7 7 7 7 8 9 11 13 15 16 16 15 14 15 15 14 16 18 19 20 20 20 19 19 19 19 19 20 20 20 19 19 19 19 19 19 19 20 21 22 20 18 17 17 16 15 14 13 12 14 16 13 10 13 13 8 9 12 13 13 13 14 14 15 16 18 19 20 19 18 17 16 15
16 15 15 15 14 14 13 10 9 11 10 7 6 6 5 5 5 5 5 5 7 9 10 12 14 14 14 14 15 14 14 15 17 19 20 20 21 19 18 18 18 19 19 19 19 19 19 19 19 20 20 20 20 21 21 21 19 17 17 16 17 16 14 15 17 17 14 12 15 15 9 9 12 13 14 14 14 15 15 15 17 19 20 20 19 19 17 16
15 15 15 14 13 12 10 9 10 11 8 6 6 5 4 4 4 3 3 4 5 7 8 10 12 12 13 15 16 14 13 15 16 18 20 20 20 19 19 18 18 18 18 18 19 19 19 20 20 21 21 20 20 20 21 21 20 19 17 15 16 18 16 17 20 18 13 11 14 15 10 9 12 13 14 15 15 16 17 16 17 19 21 21 20 20 19 18
15 14 14 13 13 11 9 9 10 9 7 6 5 4 3 2 2 1 3 4 4 6 7 9 11 11 12 15 16 15 13 13 14 17 20 20 20 19 19 19 18 18 18 18 20 19 19 20 20 21 21 20 20 20 21 22 21 20 18 14 15 18 17 17 19 17 14 10 13 16 13 9 11 13 13 14 15 17 18 19 18 20 22 22 21 21 20 19
15 14 13 13 12 9 8 8 8 7 6 6 5 2 1 2 1 1 3 4 3 5 6 8 9 10 11 12 14 16 14 12 13 17 20 19 19 19 19 20 19 18 18 20 21 19 19 20 20 20 20 20 20 20 21 22 22 20 18 16 14 15 16 17 18 17 15 13 14 17 15 10 11 13 14 14 15 17 19 19 19 20 22 22 22 23 22 21
14 12 12 11 10 8 7 7 7 6 6 6 4 2 1 2 1 2 2 3 3 3 5 7 8 9 10 11 13 14 13 12 12 16 18 17 18 18 19 19 18 17 18 18 20 21 20 19 20 20 20 20 20 20 21 22 22 20 18 16 14 13 15 16 17 17 15 14 16 19 17 12 11 13 16 14 12 15 18 18 19 20 21 22 22 23 23 22
12 11 10 9 8 7 7 6 6 5 5 5 5 3 1 2 2 2 2 2 3 3 4 6 7 8 10 11 12 13 13 12 12 14 17 16 16 17 19 19 18 17 16 17 19 19 19 18 19 20 21 20 19 20 20 21 22 21 18 17 15 14 14 14 16 18 15 14 17 20 19 15 12 14 17 15 10 13 17 17 18 20 20 22 22 22 23 23
11 10 9 8 8 7 6 5 5 5 5 5 5 2 2 3 3 2 0 1 2 2 4 6 7 7 10 11 12 13 13 12 12 14 15 15 14 16 19 19 17 16 15 16 17 17 18 18 18 20 20 19 18 19 20 19 21 22 19 18 16 15 14 13 16 17 16 15 15 18 19 16 14 14 17 17 13 13 16 16 17 19 20 21 21 21 22 23
10 9 7 6 6 6 5 4 5 5 5 5 5 3 3 4 2 1 1 1 1 1 2 5 7 7 9 11 12 13 12 12 13 14 14 14 13 15 18 19 18 17 16 16 15 15 17 18 18 19 20 20 18 19 21 21 20 22 21 20 18 17 15 15 15 15 15 15 14 16 18 15 14 14 14 17 15 14 16 16 16 18 19 20 21 21 21 22
9 8 6 5 5 4 4 4 4 5 5 5 5 4 4 4 2 2 2 1 1 2 2 3 6 6 7 11 13 12 11 12 14 14 13 12 12 14 16 18 18 17 16 15 15 15 16 17 18 19 20 20 19 19 21 21 21 21 21 21 20 18 17 16 16 16 15 15 13 14 15 13 14 14 14 15 15 15 16 16 15 17 18 19 20 20 21 22
7 6 5 5 4 3 3 3 4 4 5 6 5 4 5 4 2 3 3 2 2 3 2 1 3 5 6 9 11 11 11 12 13 14 12 11 11 12 14 15 17 18 16 15 16 16 16 16 17 19 21 21 20 19 20 20 20 21 20 20 20 19 17 16 16 17 16 14 13 13 14 13 14 14 13 13 13 15 17 16 15 16 17 17 18 19 20 21
5 4 4 4 3 3 3 3 4 4 5 6 5 4 4 3 2 2 3 3 3 3 2 1 2 3 4 7 8 9 11 12 12 12 11 11 10 9 11 13 13 16 17 16 16 16 15 16 16 17 19 21 20 20 21 20 19 20 20 21 22 20 17 15 15 16 15 14 14 14 13 14 14 13 12 12 13 15 16 16 16 16 17 17 18 18 19 20
3 3 3 2 2 3 4 4 4 4 5 6 5 4 2 2 3 2 2 3 3 2 1 1 1 2 3 6 6 6 9 12 11 10 10 11 10 8 10 12 12 14 17 17 16 16 15 15 16 16 18 19 19 18 21 21 18 18 20 21 21 20 17 16 15 14 14 14 15 14 14 14 14 13 14 13 14 15 16 17 17 17 18 18 18 18 19 19
2 2 2 2 3 4 5 5 4 5 6 6 4 4 2 3 4 3 3 3 3 1 1 1 2 3 3 5 5 4 7 10 10 9 10 10 10 9 10 12 13 13 15 16 16 16 15 15 16 17 17 18 17 16 19 20 18 18 20 20 20 20 19 17 16 15 15 15 15 13 13 14 14 14 15 15 14 14 15 17 18 17 18 17 16 17 17 18
3 2 1 2 2 3 4 5 4 5 6 5 4 4 3 3 4 4 3 3 2 1 1 1 2 3 3 4 5 4 4 7 8 8 10 10 11 11 10 11 14 13 13 15 16 15 15 15 16 17 16 17 17 17 20 21 18 17 17 18 19 19 19 18 17 16 15 16 16 15 15 15 16 16 17 16 15 14 14 16 17 16 16 15 14 15 16 16
3 3 1 1 2 2 3 4 5 6 6 4 4 4 4 4 4 4 4 3 1 2 2 2 2 3 4 4 5 5 5 6 7 8 11 12 12 13 11 11 13 14 13 15 16 15 15 14 14 15 16 17 18 18 21 21 19 17 17 18 18 18 18 18 17 17 16 15 15 15 16 17 17 18 17 16 16 16 15 16 16 14 13 13 13 13 13 14
3 3 2 2 3 3 3 4 5 6 5 4 4 4 4 5 5 4 4 3 1 1 1 3 4 4 5 4 4 5 6 5 6 8 10 12 12 12 12 11 12 14 14 15 15 14 15 14 12 14 16 16 17 19 21 21 19 18 18 18 18 18 18 17 16 17 16 15 16 16 16 16 17 17 18 17 17 17 16 16 16 14 13 13 12 12 12 12
4 3 2 3 3 3 4 5 5 5 5 4 3 3 4 5 4 4 4 3 1 0 1 3 5 4 5 6 4 5 6 5 4 6 8 10 10 11 12 10 10 12 14 16 16 15 16 15 13 14 17 18 18 18 18 19 19 18 17 17 18 18 17 18 18 17 15 15 16 15 14 15 16 17 17 17 17 17 16 17 17 15 14 13 13 12 12 12
3 2 2 3 3 3 4 5 5 5 4 4 3 4 5 4 4 5 5 3 1 0 1 3 4 4 5 7 5 5 6 5 5 6 8 8 8 9 10 9 9 11 13 15 16 15 15 15 13 14 16 17 17 16 15 17 17 17 17 17 16 17 17 18 19 18 16 16 17 15 14 16 17 16 17 17 16 15 14 15 16 16 15 14 13 13 12 12
2 2 2 3 3 3 4 5 4 4 4 4 4 4 5 5 4 3 4 3 1 1 2 2 2 4 7 7 6 5 5 5 6 6 7 7 8 8 7 8 9 11 13 15 16 15 14 14 13 13 14 15 15 14 13 15 17 17 18 17 16 16 16 16 17 17 16 17 18 16 15 17 18 17 17 17 16 15 15 15 15 14 14 14 13 13 12 12
2 1 1 2 3 3 3 3 3 3 4 5 5 5 5 5 4 3 3 2 1 2 2 2 0 3 7 6 4 4 4 5 6 6 6 6 7 8 6 6 8 11 13 15 16 16 15 14 13 13 14 15 15 14 14 15 17 17 17 16 15 15 15 16 17 16 17 18 19 18 16 17 19 18 18 18 17 16 16 16 14 12 13 14 14 14 13 12
2 2 1 2 3 3 2 3 4 4 4 5 5 5 5 5 4 4 4 2 1 2 2 2 1 3 4 3 4 4 3 5 5 5 5 4 6 7 7 6 7 8 11 12 13 15 15 14 13 14 15 16 17 16 15 15 16 16 14 13 13 13 15 16 17 17 19 18 18 19 20 20 20 20 20 19 19 18 17 16 13 12 12 12 13 13 13 13
1 2 1 2 2 3 3 4 6 5 4 4 4 5 6 6 4 4 4 3 2 2 1 1 0 2 4 3 4 4 3 5 4 4 5 4 5 6 6 7 6 7 9 11 11 14 16 15 14 13 13 15 16 15 14 13 15 14 13 12 11 11 13 15 16 18 19 18 17 20 22 21 21 22 22 21 20 19 18 16 14 12 12 12 12 13 12 12
0 1 1 1 1 1 2 3 5 5 5 5 4 4 6 6 5 4 3 3 2 2 0 1 1 3 4 4 5 4 3 4 4 3 4 3 4 4 4 6 5 5 7 10 12 14 16 16 15 14 13 13 13 13 13 12 13 13 12 11 11 10 11 14 16 18 19 18 19 21 22 20 21 22 22 22 21 19 18 16 13 12 12 12 12 12 12 12
1 1 1 1 1 1 1 3 3 5 5 4 4 4 5 5 6 5 4 2 2 3 2 1 1 1 3 4 5 4 3 5 5 4 4 3 3 4 4 5 4 4 5 9 11 14 16 16 16 15 14 13 12 12 12 11 11 12 10 10 11 10 9 12 15 17 17 17 20 22 21 19 20 21 22 22 21 20 19 17 14 12 12 12 12 11 11 12
0 1 2 1 1 1 2 2 3 4 4 4 4 4 5 5 5 5 4 3 2 2 2 2 1 1 2 3 4 5 4 6 6 5 4 4 4 4 5 5 5 4 4 7 10 13 15 16 17 16 14 13 12 12 11 10 10 10 9 9 11 11 9 10 13 15 16 17 19 21 20 18 19 20 21 22 22 21 20 18 16 13 11 10 10 10 10 11
2 2 1 1 1 0 2 1 1 2 3 3 3 3 4 4 5 5 4 4 4 2 1 2 2 2 2 2 3 4 4 6 6 5 4 4 5 5 5 6 6 5 4 6 9 11 13 15 17 17 15 15 14 12 11 11 9 8 8 9 11 12 12 12 13 15 17 19 21 21 20 19 20 20 20 21 22 21 20 18 16 14 12 11 10 10 10 11
2 2 1 2 2 1 1 1 1 2 1 2 2 3 3 4 4 5 4 4 5 4 2 2 3 2 1 1 2 5 5 5 6 5 4 4 4 4 4 5 6 6 6 7 8 9 11 13 16 17 16 17 16 14 13 12 11 9 10 11 12 13 13 12 13 15 17 19 21 21 21 21 20 20 20 21 21 21 19 18 15 14 13 12 12 11 11 11
Wind_Direction
329 325 320 313 307 302 297 292 286 282 278 276 274 271 268 266 263 261 261 260 257 254 253 253 252 249 246 243 242 241 240 236 233 229 228 227 219 215 210 205 206 206 204 202 202 201 198 201 203 200 201 204 203 196 180 159 137 93 65 56 57 70 90 111 131 141 145 149 151 153 155 148 146 152 145 133 134 133 131 133 132 127 128 133 133 136 140 142
328 326 323 318 311 304 299 294 289 283 278 275 273 270 268 265 263 261 260 259 259 256 254 252 251 249 246 243 242 241 240 235 234 232 229 226 218 214 211 208 207 204 203 203 202 200 197 199 202 200 198 206 203 183 174 162 143 118 82 75 77 89 100 111 119 129 141 147 149 152 151 149 154 153 147 139 136 134 131 134 134 130 131 134 136 138 140 143
327 324 321 319 315 308 302 296 292 287 281 276 272 270 267 265 263 261 260 259 258 257 255 253 250 248 245 243 242 240 238 235 232 229 228 223 216 213 211 210 207 203 204 204 202 200 197 198 199 197 196 207 201 175 171 165 151 142 107 91 95 106 112 121 127 132 142 148 150 154 152 155 161 153 148 145 137 136 139 141 139 136 136 139 141 141 141 143
327 323 320 317 315 311 306 299 294 290 285 280 274 270 267 264 262 261 260 258 257 256 255 253 250 247 244 242 240 239 235 231 227 223 223 218 212 210 210 210 206 204 205 205 204 203 202 204 204 203 202 203 195 179 174 171 162 151 135 124 124 117 116 128 137 140 142 149 154 158 155 156 161 156 151 146 138 140 146 144 141 140 140 142 143 143 143 143
327 324 320 316 313 311 308 302 296 291 287 283 277 271 267 264 261 260 258 257 257 256 254 252 249 245 243 241 238 236 230 226 223 221 221 216 208 207 208 208 205 203 205 205 205 206 207 209 212 214 209 199 190 185 182 179 168 156 165 165 155 132 121 133 141 143 144 149 155 158 158 158 160 159 154 149 144 145 147 144 141 141 142 143 144 144 144 145
327 323 320 316 313 310 308 304 299 293 288 284 280 274 269 264 261 259 257 256 256 255 254 251 247 244 241 240 236 232 226 222 221 220 221 215 208 205 205 205 202 201 204 205 205 206 207 209 213 214 208 198 189 190 190 185 177 168 180 184 183 166 139 140 145 149 149 150 156 160 162 160 158 158 155 150 147 145 145 142 141 142 144 144 143 143 146 146
327 323 320 316 313 310 307 304 300 295 289 284 281 277 271 265 261 259 257 255 255 254 252 249 245 242 240 237 232 229 227 225 223 221 218 214 210 206 204 204 201 200 202 203 203 204 205 208 212 209 206 199 191 195 194 189 189 191 189 188 194 185 155 145 147 156 157 154 157 160 162 164 161 160 156 154 152 146 145 144 141 142 145 145 143 144 147 147
328 324 320 316 313 310 307 304 301 296 291 285 281 278 273 267 262 259 257 255 254 252 250 246 243 239 237 233 229 228 228 226 223 217 213 211 210 207 205 205 203 200 201 202 200 201 203 208 211 207 202 200 200 201 192 191 199 206 198 185 191 185 159 147 149 160 161 159 159 158 162 167 165 159 154 156 154 148 149 147 142 143 146 147 145 146 148 149
327 324 320 317 313 310 307 303 300 297 292 286 281 278 274 269 263 259 257 255 253 250 248 244 240 237 234 231 228 228 227 222 218 212 210 212 212 209 207 207 205 202 201 201 200 199 201 205 207 204 201 204 210 206 191 191 199 203 197 178 181 178 160 151 152 161 163 164 163 161 163 166 165 158 155 156 154 155 154 150 146 146 148 147 147 149 150 152
327 324 321 318 314 311 307 303 299 297 293 288 282 278 275 270 264 260 256 255 251 247 244 240 237 235 232 230 225 225 224 218 217 214 213 214 212 210 209 209 205 203 202 202 200 200 200 202 202 203 207 208 213 209 194 196 205 200 189 166 151 148 152 151 153 166 164 166 170 166 164 164 164 164 168 165 160 162 157 152 151 150 151 150 149 151 152 154
326 324 322 319 315 311 308 304 299 296 293 289 283 277 274 271 265 261 257 254 249 243 240 236 234 232 231 229 224 223 221 217 217 217 216 216 214 211 210 208 205 203 202 201 201 200 201 203 203 204 208 209 216 214 197 202 217 196 179 161 141 133 147 153 161 179 170 170 173 164 161 163 165 171 175 172 168 164 158 155 156 156 156 155 153 154 155 157
327 325 323 320 316 312 308 304 300 295 293 289 284 277 273 270 266 262 258 252 246 242 238 233 229 230 230 230 224 221 218 216 217 217 216 217 216 213 209 207 206 204 201 200 202 201 203 206 205 206 210 211 215 213 200 208 220 194 182 178 169 154 166 172 173 181 177 178 172 162 166 171 168 174 175 172 169 162 160 163 163 161 160 157 157 159 158 161
326 325 323 321 317 313 309 304 300 295 291 288 284 277 272 268 264 262 258 251 244 240 236 229 227 229 229 228 224 220 220 220 218 216 217 216 214 211 208 207 206 205 201 200 202 202 205 206 205 209 214 213 210 210 206 210 212 193 190 192 186 183 191 195 182 160 156 184 179 170 182 183 171 176 177 173 170 166 166 171 168 165 164 160 161 163 163 165
326 325 323 321 317 313 309 304 300 295 291 287 283 277 272 266 262 260 257 250 243 237 232 227 227 228 228 228 225 224 226 223 218 216 215 213 209 206 206 206 206 205 202 202 203 205 210 211 210 212 213 209 206 208 204 203 203 191 191 197 195 194 194 199 189 160 152 191 202 196 190 187 175 176 179 174 174 173 172 174 172 169 169 165 165 167 167 168
325 325 323 321 318 314 309 304 299 294 291 286 281 277 272 265 260 257 254 249 242 234 229 227 228 229 231 231 226 226 224 219 216 214 212 210 205 204 204 204 205 205 203 205 206 209 213 215 213 210 210 209 204 202 200 199 199 193 193 197 201 198 193 198 195 183 171 189 209 207 187 187 180 178 180 177 176 176 175 176 176 174 172 170 170 172 171 171
325 325 323 322 319 315 310 305 300 296 291 286 281 276 270 264 257 253 251 247 241 233 228 228 229 228 230 230 225 225 221 215 215 213 211 208 203 203 202 202 204 204 205 207 208 210 214 216 212 206 205 207 203 197 197 198 199 200 197 197 199 196 192 195 197 197 187 181 200 204 188 188 183 180 182 180 179 178 177 179 182 180 175 174 174 176 175 173
324 324 323 321 319 316 312 307 303 298 293 287 280 274 268 262 254 250 249 245 240 233 229 230 229 228 228 226 223 223 219 216 215 211 209 207 203 201 199 202 204 203 205 208 210 212 214 214 209 205 203 203 201 194 193 199 203 203 198 197 199 193 190 190 193 201 198 190 198 201 192 187 178 177 182 183 181 179 179 181 186 185 179 178 178 178 178 176
323 322 321 320 319 318 315 311 306 301 296 288 280 273 267 262 253 247 245 242 239 234 232 229 225 225 224 221 222 222 219 216 214 210 208 206 204 201 199 203 204 202 205 208 211 211 211 209 205 206 207 204 201 194 194 197 194 192 191 194 197 195 195 195 193 196 194 192 197 194 190 183 172 172 178 181 181 180 181 183 187 186 182 180 181 182 181 178
322 321 320 319 319 319 318 315 311 306 301 291 282 273 264 262 253 244 242 240 236 233 232 224 216 218 220 221 223 222 218 213 211 209 206 204 204 203 202 203 203 201 203 206 210 209 206 206 207 208 207 206 202 198 198 197 191 194 197 197 198 203 209 207 202 194 189 188 192 191 190 186 178 174 174 176 181 182 183 186 187 187 186 183 184 187 184 179
320 320 320 320 319 319 320 320 316 312 306 295 285 273 261 260 252 244 244 241 238 235 233 225 216 221 227 226 225 221 215 211 209 208 206 204 203 203 204 204 202 202 203 203 208 209 204 205 210 210 208 207 204 202 203 202 202 208 210 209 205 207 215 211 205 197 192 192 195 192 189 188 185 181 178 176 181 184 186 189 189 189 188 185 187 188 185 182
320 320 320 321 320 320 322 322 320 316 309 297 285 270 259 255 251 253 252 245 242 236 234 228 219 222 229 228 227 224 216 210 210 209 206 204 202 202 205 205 204 206 206 203 205 209 205 207 211 211 209 209 207 207 207 205 208 212 214 216 213 213 218 214 205 197 194 198 197 189 184 189 188 184 183 181 183 187 188 190 191 192 190 187 189 189 186 183
320 320 322 322 322 322 324 324 322 319 310 297 284 269 262 257 255 262 257 248 245 237 231 227 222 224 228 229 230 225 216 210 211 212 208 203 202 205 206 205 204 208 208 203 204 208 209 211 213 211 210 209 210 211 211 210 211 213 215 219 222 222 217 209 202 195 195 201 195 183 180 188 190 186 184 186 189 191 191 191 192 194 191 189 189 188 187 182
320 321 324 324 324 324 325 324 323 320 314 300 284 268 265 264 264 268 259 247 246 239 227 221 221 222 223 229 227 217 211 210 211 211 208 203 204 205 204 204 205 207 208 205 205 207 210 214 214 212 209 206 209 212 213 215 214 212 214 217 221 215 199 194 196 194 194 199 193 182 181 190 192 192 190 191 194 193 193 194 196 198 196 193 191 189 190 187
322 324 326 325 325 324 324 324 324 323 319 305 288 273 270 270 266 266 258 243 239 235 225 219 217 217 222 227 217 207 208 211 211 210 207 204 204 205 204 205 205 207 209 207 205 207 212 214 210 210 208 203 206 210 211 214 214 213 212 213 214 204 195 192 189 189 192 196 190 179 180 196 195 194 196 195 194 193 192 195 201 204 200 198 197 194 195 195
324 326 327 327 326 323 323 324 325 326 322 308 295 284 276 269 260 258 250 238 234 230 221 216 215 216 221 219 209 206 210 212 212 210 207 205 204 204 205 206 205 207 210 208 207 210 214 214 208 208 208 205 206 208 209 209 212 215 211 208 206 196 195 194 184 185 192 200 195 186 186 203 200 197 198 195 194 195 193 196 202 204 202 203 203 200 200 201
325 326 328 328 327 325 325 324 324 326 324 314 307 301 287 265 258 257 235 227 228 221 215 211 211 215 216 212 208 209 213 217 215 208 206 206 205 204 205 207 206 207 208 208 210 212 213 213 209 207 209 208 208 210 209 205 208 213 207 200 199 195 194 195 189 188 193 198 197 197 197 200 202 204 202 197 197 198 196 197 200 201 202 204 204 204 203 201
324 325 327 329 329 329 328 325 327 331 329 321 316 315 305 269 264 259 216 213 222 216 213 211 212 214 215 213 210 207 213 219 214 208 206 206 206 205 206 209 207 207 207 207 213 214 211 212 210 208 209 210 210 211 207 202 205 208 203 196 196 200 200 197 194 193 196 195 195 203 205 198 205 207 199 198 201 202 201 201 199 198 201 203 204 206 205 201
324 324 327 330 329 327 326 329 334 338 336 331 326 323 313 280 275 229 182 192 214 214 210 209 211 216 218 215 210 207 210 210 209 210 206 203 205 205 207 209 206 209 212 210 215 216 211 211 210 207 209 211 211 210 205 202 205 205 201 199 198 201 200 195 194 197 202 200 198 206 207 200 208 205 196 199 205 207 206 203 200 198 201 204 205 207 206 203
323 323 327 331 330 325 326 332 336 338 340 344 344 335 325 325 342 138 158 169 198 214 208 208 213 219 222 215 210 210 210 209 212 209 202 202 207 206 207 208 206 211 216 214 215 215 212 212 211 207 208 211 211 210 206 203 204 204 200 200 200 200 197 195 197 200 205 208 206 205 203 200 208 204 196 200 209 211 207 204 202 200 201 204 205 206 207 206
321 322 327 332 333 331 329 328 329 334 344 353 350 336 342 355 70 125 148 167 195 216 208 212 220 219 218 213 210 210 208 213 214 202 199 205 208 208 210 208 208 214 219 218 216 215 213 215 215 210 208 209 209 210 208 204 202 202 201 202 206 204 198 200 204 201 205 216 216 210 203 199 207 206 200 202 208 204 200 201 202 201 202 203 205 206 207 208
321 324 329 333 335 335 334 334 338 344 353 358 347 334 356 30 75 105 147 184 211 235 223 222 227 221 214 210 210 207 204 211 208 196 199 207 207 209 211 210 213 216 220 220 217 216 214 215 217 212 208 207 207 209 209 204 202 201 201 201 206 207 202 202 204 202 209 220 219 212 206 205 210 208 204 208 209 197 195 198 199 200 202 202 204 206 207 208
323 326 329 334 338 337 339 346 353 1 4 3 0 10 74 71 61 71 161 214 221 247 237 222 221 220 214 210 208 204 201 205 205 198 201 205 207 211 209 209 212 213 216 216 215 217 216 215 215 211 208 205 205 208 208 206 204 201 200 198 201 204 204 205 204 205 215 222 216 205 203 212 219 214 210 210 208 200 198 198 198 200 201 202 205 206 207 208
323 326 332 336 339 343 349 352 0 12 11 8 18 55 86 81 63 25 356 359 184 246 253 218 213 212 207 204 206 204 199 204 207 203 203 204 208 213 211 210 208 206 211 212 212 216 215 216 215 209 209 206 203 204 203 204 203 200 202 201 200 201 201 208 210 208 215 221 213 198 199 214 220 220 222 212 203 200 198 197 198 200 200 202 205 206 207 209
322 326 337 341 340 346 351 353 8 21 20 19 36 66 69 63 40 357 356 1 295 302 309 237 221 213 201 200 203 201 199 206 206 198 199 204 209 214 213 214 211 205 209 213 213 211 208 215 216 209 208 207 203 201 199 200 201 202 205 203 202 204 203 209 211 208 211 213 207 200 205 217 214 217 227 214 200 197 195 196 199 200 201 203 204 205 207 209
324 328 341 346 347 355 358 11 34 37 32 35 51 68 58 43 12 354 335 298 317 326 338 326 201 195 200 201 201 202 200 203 202 198 203 206 207 213 210 213 214 206 207 212 212 210 207 212 215 211 209 205 204 205 199 198 204 208 207 202 205 207 206 209 212 208 206 205 209 211 215 220 213 214 222 207 196 197 194 195 199 200 201 201 202 205 206 208
329 338 352 352 358 24 36 45 57 52 41 45 53 51 38 16 350 346 319 298 319 324 322 19 123 146 191 196 199 210 205 201 200 201 206 202 200 209 205 205 209 203 202 205 207 209 208 211 214 211 209 206 204 206 202 200 205 210 209 207 209 207 204 211 218 214 206 204 214 216 213 215 212 211 214 202 196 201 198 197 200 201 200 201 202 204 205 206
340 348 3 12 30 52 61 59 62 55 43 48 47 27 17 359 328 316 320 329 325 313 337 97 147 145 173 187 196 208 202 200 200 199 202 199 197 202 199 197 198 198 200 201 203 204 204 210 212 205 207 210 205 202 203 203 204 206 209 210 210 208 208 212 215 215 210 208 215 218 212 211 210 211 213 208 202 205 204 201 201 200 199 202 204 204 205 206
15 10 23 64 70 65 64 58 59 56 44 43 29 7 25 10 330 315 320 325 311 292 105 122 207 183 158 181 194 194 195 199 198 192 192 192 194 197 196 198 200 203 205 201 201 203 201 206 211 205 205 208 202 197 201 207 207 205 206 207 206 206 210 213 211 210 209 210 217 222 219 216 215 212 212 210 203 204 209 204 200 200 199 200 204 204 205 206
40 51 61 72 61 56 63 60 58 52 41 35 22 6 14 1 331 323 328 310 281 253 215 227 212 181 167 175 180 183 195 194 190 190 191 193 200 200 198 201 204 209 211 203 201 204 200 201 209 210 207 205 203 201 202 206 210 208 206 208 206 205 207 210 211 208 205 210 216 219 222 224 222 215 211 211 207 209 219 211 200 198 197 196 199 201 203 205
48 66 76 54 48 61 78 66 50 44 38 29 20 6 2 360 340 334 351 350 273 250 243 226 198 179 183 180 180 190 194 189 194 201 200 199 203 205 207 208 206 212 215 204 200 205 202 199 207 211 207 202 202 203 201 201 206 208 207 210 210 208 210 212 214 211 206 209 214 215 223 227 223 216 212 211 209 213 222 215 201 194 192 192 195 198 202 203
68 78 87 64 65 86 89 64 40 38 31 11 9 12 11 9 354 339 353 15 8 239 207 191 187 184 184 180 185 194 190 193 207 209 205 203 202 208 214 213 209 212 213 206 203 205 203 199 204 206 202 201 203 204 201 199 201 203 204 209 210 208 210 212 216 218 213 212 212 210 219 225 220 216 213 210 210 212 215 210 200 192 188 190 194 196 199 202
81 90 94 63 62 88 82 50 27 31 27 10 8 10 360 359 4 0 354 5 29 138 146 177 187 186 180 180 188 192 188 200 213 198 195 198 203 216 221 216 212 210 207 206 207 207 203 200 203 205 203 205 207 205 203 202 203 202 204 211 211 208 209 210 213 218 216 214 212 209 216 219 215 215 211 206 208 212 211 206 199 193 190 190 195 198 199 202
77 80 75 56 57 87 75 38 18 25 22 7 4 357 353 359 16 19 14 16 28 60 138 175 192 189 179 184 194 197 192 201 208 194 187 192 208 224 224 218 217 211 205 207 209 208 205 202 205 209 207 208 207 206 208 207 206 207 210 215 213 210 210 209 211 213 210 211 210 209 218 217 210 212 210 203 205 210 210 204 198 195 194 193 196 200 202 203
73 74 73 56 53 73 66 37 24 27 18 15 20 14 10 12 17 23 18 23 52 99 144 176 208 196 188 189 193 201 202 199 201 196 193 202 216 223 222 220 219 213 206 206 208 208 205 201 202 204 205 208 207 209 215 214 210 209 213 219 218 213 210 210 211 210 211 213 208 205 215 215 207 208 207 202 204 208 209 207 201 197 196 196 198 201 204 206
71 94 85 46 45 60 47 27 39 39 20 25 32 29 20 8 8 28 19 8 43 69 140 171 116 171 185 197 196 195 191 183 190 197 199 216 224 220 221 224 221 216 211 209 207 205 201 198 195 193 195 201 203 205 212 213 212 213 216 222 220 214 214 213 209 208 211 213 209 207 209 207 203 204 204 203 205 206 203 200 197 192 190 194 197 199 204 207
98 112 87 42 49 57 44 33 51 52 30 39 41 29 24 11 4 23 26 22 18 30 120 150 74 134 166 186 181 175 169 168 177 188 195 220 228 217 212 211 217 221 216 211 207 202 198 196 193 191 194 198 201 206 209 209 209 213 218 222 217 216 219 214 208 210 208 207 213 214 204 197 199 202 201 204 206 205 200 196 197 196 190 190 195 197 201 205
126 139 101 83 67 59 57 46 47 47 40 54 50 21 23 27 21 22 23 21 7 12 128 155 99 158 167 168 165 168 174 171 165 168 186 213 219 211 206 204 215 223 212 209 207 201 197 199 201 201 201 200 202 207 211 207 205 206 210 213 210 212 217 212 207 208 205 203 212 213 202 194 197 200 200 203 206 206 203 197 198 198 193 191 193 194 198 202
162 190 128 104 145 118 71 35 33 41 43 50 48 26 33 41 38 31 12 359 9 18 72 210 209 179 181 179 174 176 172 170 173 178 191 209 206 199 202 206 217 225 211 208 206 200 197 200 204 204 205 205 204 207 210 208 205 203 203 207 205 203 210 211 208 207 206 206 207 205 200 195 195 197 199 201 203 202 195 186 183 185 189 193 193 192 198 203
305 229 243 20 145 181 14 5 25 45 47 50 47 34 38 41 32 25 9 353 1 8 17 170 194 185 185 186 184 188 178 171 182 190 190 199 199 190 192 206 223 236 213 205 205 202 199 202 204 201 202 206 206 208 210 209 207 204 205 208 203 197 202 210 208 206 206 206 200 196 196 197 199 200 200 200 201 199 193 187 185 184 189 197 200 200 203 205
265 219 248 303 312 271 351 11 46 54 40 43 46 30 29 32 23 15 18 39 58 13 27 79 117 143 170 183 179 183 188 181 183 194 195 193 198 192 193 206 219 229 214 203 207 207 203 206 208 202 201 208 209 210 214 210 201 197 202 210 205 198 203 207 204 202 201 198 195 192 192 199 205 204 201 202 203 200 197 197 197 197 197 198 201 205 207 207
209 202 220 220 207 336 12 6 60 61 29 23 35 26 24 27 20 17 23 42 68 69 59 82 89 116 161 187 184 194 207 195 193 213 217 201 202 205 209 212 209 209 213 207 208 208 204 208 210 204 204 212 214 216 221 215 201 194 203 213 209 204 207 212 212 210 204 196 193 193 196 202 207 205 202 204 205 203 200 199 201 202 199 192 191 197 203 204
214 203 172 144 176 259 338 307 359 58 24 6 26 27 31 34 32 38 38 32 40 45 57 92 95 103 132 173 212 222 230 223 220 232 230 211 207 208 210 208 199 201 215 215 210 208 204 205 208 206 207 215 221 225 227 218 211 215 218 217 215 210 208 211 213 209 204 201 200 202 205 205 204 204 204 205 206 205 202 200 199 197 195 195 195 195 197 197